Weather in Sazhino

Russia / Kurgan Oblast     55°05′56″N   63°21′06″E
В апреле 2022 года жителям России запретили посещать сайт meteo.paraplan.net по решению Генеральной прокуратуры. Аудитория сайта уменьшилась в 10 раз. Владельцы сайта не видят смысла в поддержке погодного сервера в таких условиях. Сайт будет закрыт в октябре.
temp.,
°C
wind,
m/s
gust,
m/s
humid.,
%
clouds,
%
prec.,
mm/h
press.,
hPa
HPBL,
m
25 september, sun
sun2523:00+19sw344892 0.1 101046
02:00+17wsw22626 0.4 100913
05:00+15wnw236098 0.7 101023
08:00+15nnw2472100 0.4 1009112
11:00+17ne6662100 1.2 1009420
14:00+20ene4550100 0.3 1010885
17:00+18ne81056100 0.3 1009736
20:00+13ene91471100 0.1 1010523
26 september, mon
mon2623:00+11e81574100 0.1 1009538
02:00+9e101782100 0.3 1006499
05:00+8e91689100 2.4 1005565
08:00+7e81494100 8.3 1004556
11:00+6e81394100 16.9 1004470
14:00+6ene71092100 2.3 1005558
17:00+2n5897100 4.8 1008355
20:00+1n58100100 3.3 1010338
27 september, tue
tue2723:00+1n51099100 4.1 1012437
02:00+1n61097100 0.5 1013447
05:000n6109475 0.9 1015445
08:00−1n599244 0.0 1016357
11:00+1n458797 0.0 1018569
14:00+2nne567886 0.0 1019778
17:00+2nne4574100 0.1 1020959
20:00+1n358997 0.0 1021191
28 september, wed
wed2823:00−1n229320 0.1 102232
02:00−2nnw339485 0.0 102263
05:00−1nnw2493100 0.0 1023109
08:000n248498 0.0 1023177
11:00+2nne3368100 0.0 1024628
14:00+3n4462100 0.1 10241218
17:00+2n556670 0.1 1025992
20:00−1n358972 0.0 1027134
29 september, thu
thu2923:00−2n35885 0.0 1027100
02:00−3nne35895 0.0 1028126
05:00−3nne35885 0.0 1029144
08:00−2nne35805 0.0 1030229
11:00+2nne346079 0.0 10301061
14:00+3nne4453100 0.1 10301495
17:00+2ne555991 0.1 10311056
20:00−1ene34805 0.0 103371